Regional Weather Roundup
Issued by NWS Charleston, SC

Current Version | Previous Version | Text Only | Print | Product List | Glossary Off
Versions: 1 2 3 4 5 6 7 8 9 10 11 12 13 14 15 16 17 18 19 20 21 22 23 24 25 26 27 28 29 30 31 32 33 34 35 36 37 38 39 40 41 42 43 44 45 46 47 48 49 50
000 ASUS42 KCHS 241227 RWRCHS Regional Weather Roundup National Weather Service Charleston SC 700 AM EST THU JAN 24 2019 NOTE: "fair" indicates few or no clouds below 12,000 feet with no significant weather and/or obstructions to visibility. Not all stations are quality controlled. Use data with caution, especially dewpoint observations. SCZ027-030-031-034>040-042>050-241300- ...Southeast South Carolina... CITY SKY/WX TMP DP RH WIND PRES REMARKS N Charleston RAIN 66 63 90 S31G44 29.66F FOG 6HR MIN TEMP: 66; 6HR MAX TEMP: 69; 6HR PCP: 0.24; Waterfront Prk N/A 65 64 97 S26G36 29.56F Mount Pleasant RAIN 64 63 94 S22G32 29.67F Johns Island CLOUDY 63 61 94 S25G35 29.69F FOG Pinopolis N/A 66 66 100 S15G24 29.56F Moncks Corner LGT RAIN 66 64 94 SW18G25 29.66S Summerville LGT RAIN 64 63 94 S20G33 29.67F Beaufort MCAS CLOUDY 65 64 97 S14G29 29.69F 6HR MIN TEMP: 64; 6HR MAX TEMP: 68; Beaufort Arpt CLOUDY 61 59 94 S22G31 29.68R FOG Hilton Head Is RAIN 61 61 100 S17G29 29.73F Walterboro CLOUDY 64 63 94 S21G33 29.67R Allendale RAIN 64 64 100 VRB5 29.64S ...Southern Midlands and Pee Dee... CITY SKY/WX TMP DP RH WIND PRES REMARKS Georgetown LGT RAIN 64 63 94 S30G40 29.68F Kingstree CLOUDY 64 64 100 S15G28 29.61F Orangeburg LGT RAIN 66 62 87 S23G32 29.61F 6HR MIN TEMP: 63; 6HR MAX TEMP: 66; 6HR PCP: 1.25; Barnwell CLOUDY 64 63 94 SW15 29.64R Aiken LGT RAIN 59 59 100 SW10 29.66R Manning CLOUDY 64 63 94 SW16G25 29.62F Columbia RAIN 63 63 100 SW10 29.59F FOG 6HR MIN TEMP: 60; 6HR MAX TEMP: 65; 6HR PCP: 1.02; Sumter LGT RAIN 64 64 100 S8 29.57F 6HR MIN TEMP: 64; 6HR MAX TEMP: 66; 6HR PCP: 0.77; Florence LGT RAIN 64 63 96 S12 29.60F 6HR MIN TEMP: 64; 6HR MAX TEMP: 67; 6HR PCP: 0.89; Myrtle Beach LGT RAIN 65 63 93 S23G35 29.69F N Myrtle Beach RAIN 60 60 100 SW22G29 29.70F FOG 6HR MIN TEMP: 59; 6HR MAX TEMP: 64; 6HR PCP: 0.57; $$ GAZ063-065-086>088-099>101-113>116-118-119-134>141-150-241300- ...Southeast Georgia... CITY SKY/WX TMP DP RH WIND PRES REMARKS Savannah Arpt LGT RAIN 65 64 97 S16G25 29.69F 6HR PCP: 1.09; Hunter AAF FAIR 63 61 94 S16G23 29.68 6HR MIN TEMP: 64; 6HR MAX TEMP: 67; 6HR PCP: 1.21; Fort Stewart CLOUDY 64 64 100 S10 29.68F 6HR MIN TEMP: 64; 6HR MAX TEMP: 67; 6HR PCP: 1.50; Statesboro LGT RAIN 64 62 95 W14G21 29.68R Sylvania RAIN 65 65 99 W6 29.67R Claxton CLOUDY 67 65 92 S8G18 29.69R ...CSRA, Central and far Southeast Georgia... CITY SKY/WX TMP DP RH WIND PRES REMARKS Thomson CLOUDY 56 54 94 NW14G22 29.74R FOG Augusta-Bush LGT RAIN 63 61 93 W13G21 29.65R FOG 6HR MIN TEMP: 63; 6HR MAX TEMP: 66; 6HR PCP: 1.72; Augusta-Daniel CLOUDY 63 59 87 SW6 29.64S Swainsboro DRIZZLE 61 59 94 W14G24 29.73R Vidalia RAIN 63 59 88 W12G23 29.73R Eastman CLOUDY 57 53 88 W10G20 29.80R Hazlehurst LGT RAIN 61 57 87 W12G26 29.75R Alma HVY RAIN 66 62 87 W15G28 29.74R FOG 6HR MIN TEMP: 64; 6HR MAX TEMP: 66; 6HR PCP: 1.18; Waycross CLOUDY 66 61 84 SW16 29.74R Jesup CLOUDY 66 63 88 SW7 29.73R Baxley CLOUDY 63 63 100 SW10G21 29.71R Brunswick CLOUDY 63 63 100 SW12 29.75R Saint Simons LGT RAIN 64 61 90 SW13G18 29.74F 6HR MIN TEMP: 62; 6HR MAX TEMP: 65; 6HR PCP: 1.54; $$ SCZ027-028-034-036>038-045-046-048>050-GAZ119-141-241300- ...Lake and Supplemental Coastal Observations... STATION/POSITION TIME TEMP WIND PRES WAVE SWELL AIR SEA DIR/SP/G HT/PER HT/PER/DIR (UTC) (F) (DEG/KT/KT) (MB) (FT/S) (FT/S/D) Winyah Bay 1145 65 220/ 22 1005.0F Lake Murray 1120 60 190/ 14/ 19 1002.0 ACE Basin NERRS 1145 63 170/ 8 1005.0F Fort Pulaski 1200 62 52 190/ 13/ 23 1006.2 Sapelo Island 1200 60 190/ 12 1007.0 $$ ANZ835-935-AMZ111-154-330-350-352-354-370-450-454-472-241300- ...C-MAN and Buoy Observations... STATION/POSITION TIME TEMP WIND PRES WAVE SWELL AIR SEA DIR/SP/G HT/PER HT/PER/DIR (UTC) (F) (DEG/KT/KT) (MB) (FT/S) (FT/S/D) Buoy 41004 1200 210/ 21/ 27 1007.6 Buoy 41008 1150 60 57 170/ 19/ 23 1007.2F 7/ 8 5/130/ 8 Folly Beach CMAN 1200 61 190/ 28/ 32 1006.6F Capers Nearshore 1108 61 55 230/ 17/ 25 1007.6F Fripp Nearshore 1208 61 55 190/ 16/ 27 1005.7F STATION/POSITION TIME TEMP WIND PRES WAVE SWELL AIR SEA DIR/SP/G HT/PER HT/PER/DIR (UTC) (F) (DEG/KT/KT) (MB) (FT/S) (FT/S/D) 5E St. Marys GA 1200 57 N/A 6/ 8 Frying Pan Buoy 1200 150/ 33/ 43 1007.1 Buoy 41025 NOT AVBL Cape Lookout NC 1200 170/ 27/ 30 1007.1F Buoy 41002 1210 1015.7 Buoy 41010 1210 74 76 180/ 29/ 37 1014.9 St Augustine FL 1200 65 62 200/ 13/ 19 1010.5R $$

USA.gov is the U.S. government's official web portal to all federal, state and local government web resources and services.